Regional Weather Roundup
Issued by NWS Portland, ME

Current Version | Previous Version | Text Only | Print | Product List | Glossary Off
Versions: 1 2 3 4 5 6 7 8 9 10 11 12 13 14 15 16 17 18 19 20 21 22 23 24 25 26 27 28 29 30 31 32 33 34 35 36 37 38 39 40 41 42 43 44 45 46 47 48 49 50
000 ASUS41 KGYX 171205 RWRGYX WEATHER ROUNDUP FOR MAINE AND NEW HAMPSHIRE NATIONAL WEATHER SERVICE GRAY ME 800 AM EDT THU AUG 17 2017 MEZ002-005-006-010-012-015-018-020-021-024-026-027-029-171300- MAINE CITY SKY/WX TMP DP RH WIND PRES REMARKS PORTLAND CLOUDY 61 47 59 SW5 30.02F 6HR MIN TEMP: 50; 6HR MAX TEMP: 61; SANFORD CLOUDY 61 51 70 CALM 30.05R BAR HARBOR SUNNY 59 50 72 VRB3 29.97R WISCASSET SUNNY 61 51 70 W3 30.02S 6HR MIN TEMP: 49; 6HR MAX TEMP: 61; ROCKLAND SUNNY 59 51 75 W7 29.99S FRYEBURG CLOUDY 62 50 64 SW8 30.02S 6HR MIN TEMP: 48; 6HR MAX TEMP: 62; LEWISTONAUBURN SUNNY 58 50 75 S3 30.01S AUGUSTA SUNNY 60 49 66 SW7 30.01R 6HR MIN TEMP: 55; 6HR MAX TEMP: 60; WATERVILLE SUNNY 60 50 69 SW8 29.96S BANGOR PTSUNNY 59 47 64 W9 29.97R 6HR MIN TEMP: 51; 6HR MAX TEMP: 59; GREENVILLE N/A 54 45 71 NW13G22 29.94R 6HR MIN TEMP: 50; 6HR MAX TEMP: 54; MILLINOCKET SUNNY 58 47 66 W9G21 29.92S 6HR MIN TEMP: 46; 6HR MAX TEMP: 58; HOULTON SUNNY 59 46 62 W7 29.85S 6HR MIN TEMP: 46; 6HR MAX TEMP: 59; PRESQUE ISLE SUNNY 58 44 60 W12 29.84S 6HR MIN TEMP: 50; 6HR MAX TEMP: 58; FRENCHVILLE MOSUNNY 56 43 61 W15G24 29.80R 6HR MIN TEMP: 47; 6HR MAX TEMP: 56; CARIBOU SUNNY 59 45 59 VRB6 29.81S 6HR MIN TEMP: 46; 6HR MAX TEMP: 59; $$ NHZ002-005-008-009-011-012-014-171300- NEW HAMPSHIRE CITY SKY/WX TMP DP RH WIND PRES REMARKS PORTSMOUTH PTSUNNY 61 49 65 W3 30.04R ROCHESTER MOSUNNY 63 49 60 W3 30.04S 6HR MIN TEMP: 48; 6HR MAX TEMP: 63; NASHUA CLOUDY 57 52 83 CALM 30.08R MANCHESTER CLOUDY 58 50 75 CALM 30.05S 6HR MIN TEMP: 53; 6HR MAX TEMP: 61; CONCORD CLOUDY 56 52 86 CALM 30.07S 6HR MIN TEMP: 46; 6HR MAX TEMP: 56; LACONIA CLOUDY 59 51 75 W8 30.06S PLYMOUTH FAIR 49 48 95 CALM 30.07R BERLIN MOSUNNY 60 46 59 VRB5 30.03S 6HR MIN TEMP: 42; 6HR MAX TEMP: 60; WHITEFIELD CLOUDY 49 46 90 CALM 30.07R 6HR MIN TEMP: 40; 6HR MAX TEMP: 49; JAFFREY SUNNY 56 53 90 S3 30.10R 6HR MIN TEMP: 49; 6HR MAX TEMP: 56; KEENE N/A N/A N/A N/A MISG N/A LEBANON CLOUDY 51 51 100 S5 30.08F FOG 6HR MIN TEMP: 47; 6HR MAX TEMP: 52; MT WASHINGTON FOG 37 37 100 NW60G68 N/A VSB 0 6HR MIN TEMP: 36; 6HR MAX TEMP: 38; $$ VTZ005-007-008-171300- VERMONT CITY SKY/WX TMP DP RH WIND PRES REMARKS ST JOHNSBURY N/A 50 49 96 MISG 30.05S MONTPELIER CLOUDY 52 50 93 CALM 30.10S BURLINGTON CLOUDY 58 53 84 CALM 30.07R $$ MAZ007-012-024-CTZ003-RIZ002-NYZ038-NYZ072-171300- SOUTHERN NEW ENGLAND AND NY CITY SKY/WX TMP DP RH WIND PRES REMARKS BOSTON PTSUNNY 67 49 52 W7 30.07R WORCESTER CLOUDY 62 48 60 NW6 30.09S NANTUCKET MOSUNNY 69 61 75 NE7 30.06R PROVIDENCE PTSUNNY 68 51 54 N6 30.09R HARTFORD PTSUNNY 63 56 78 CALM 30.09R ALBANY PTSUNNY 59 53 80 CALM 30.11R NEW YORK CITY PTSUNNY 71 57 61 NE9G21 30.07R $$ ANZ081-ANZ082-ANZ150-NHZ014-MEZ023>029-171300- COASTAL MARINE OBSERVATIONS STATION/POSITION TIME TEMP WIND PRES WAVE AIR SEA DIR/SP/G HT/PER (UTC) (F) (DEG/KT/KT) (MB) (FT/S) MOUNT DESERT ROC 1200 57 1015.2R MATINICUS ROCK 1100 59 270/ 17/ 18 1015.3R ISLE OF SHOALS 1100 60 260/ 11/ 12 1017.1R JEFFREYS LEDGE 1106 66 N/A 3/10 CASHES LEDGE BUO 1050 68 67 1015.8 3/11 GEORGES BANK BUO 1050 64 65 1015.9 4/11 $$ .............KEY.............. WCI - WIND CHILL TC - TEMPERATURE IN CELSIUS VSB - VISIBILITY IN MILES HX - HEAT INDEX FAIR- INDICATES FEW OR NO CLOUDS BELOW 12,000 FT, WITH NO SIGNIFICANT WEATHER AND/OR OBSTRUCTIONS TO VISIBILITY.

USA.gov is the U.S. government's official web portal to all federal, state and local government web resources and services.